Regional Weather Roundup
Issued by NWS

Home | Current Version | Previous Version | Graphics & Text | Print | Product List | Glossary On
Versions: 1 2 3 4 5 6 7 8 9 10 11 12 13 14 15 16 17 18 19 20 21 22 23 24 25 26 27 28 29 30 31 32 33 34 35 36 37 38 39 40 41 42 43 44 45 46 47 48 49 50
625
ASUS43 KDTX 211410
RWRMI
MICHIGAN HOURLY REGIONAL WEATHER ROUNDUP
NATIONAL WEATHER SERVICE DETROIT/PONTIAC MI
ISSUED BY NATIONAL WEATHER SERVICE GRAND RAPIDS MI
900 AM EST TUE FEB 21 2017

NOTE: "FAIR" INDICATES FEW OR NO CLOUDS BELOW 12,000 FEET WITH NO
SIGNIFICANT WEATHER AND/OR OBSTRUCTION TO VISIBILITY.

MIZ047>049-052>055-059>063-066>070-074>076-081>083-211500-
SOUTHEAST LOWER MICHIGAN

CITY           SKY/WX    TMP DP  RH WIND       PRES   REMARKS
ADRIAN         CLOUDY    39  36  89 CALM      29.99S
ALMA           LGT RAIN  44  40  88 S9        29.91F
ANN ARBOR      CLOUDY    41  35  79 SW3       29.98R
BAD AXE        CLOUDY    41  34  75 S8        29.93F
DETROIT CITY   CLOUDY    41  35  79 CALM      29.98S
DETROIT        CLOUDY    41  35  79 S3        29.99S
FLINT          LGT RAIN  48  39  71 SW9       29.95F
GROSSE ILE     CLOUDY    39  35  85 S3        29.97S
HILLSDALE      CLOUDY    45  37  76 SW5       29.97S
HOWELL         CLOUDY    46  37  70 SW6       29.96S

CITY           SKY/WX    TMP DP  RH WIND       PRES   REMARKS
JACKSON        CLOUDY    51  40  65 W8        29.97R
LANSING        LGT RAIN  48  40  73 S6        29.96R
MASON          LGT RAIN  45  40  84 CALM      29.96S
MONROE         CLOUDY    40  37  87 CALM      29.97F
MT. CLEMENS    CLOUDY    39  35  87 S3        29.96S
PONTIAC        CLOUDY    41  33  73 S3        29.95S
PORT HOPE        N/A     45  34  65 SW8       29.91R
PORT HURON     CLOUDY    41  32  70 S7        29.97F
TRI CITIES     LGT RAIN  44  40  85 S8        29.91F
YPSILANTI      CLOUDY    41  36  82 CALM      29.98S
$$
MIZ043>046-050>051-056>058-064>065-071>073-077>080-211500-
SOUTHWEST LOWER MICHIGAN

CITY           SKY/WX    TMP DP  RH WIND       PRES   REMARKS
BATTLE CREEK   LGT RAIN  49  46  90 W3        29.96S FOG
BENTON HARBOR  LGT RAIN  53  50  89 S7        29.93F FOG
BIG RAPIDS     LGT RAIN  44  43  94 CALM      29.88R VSB 1
COLDWATER      CLOUDY    50  41  72 SW3       29.97S
HOLLAND        LGT RAIN  53  50  89 S8        29.92S FOG
GRAND RAPIDS   LGT RAIN  49  45  86 S12       29.92R FOG
KALAMAZOO      LGT RAIN  49  44  83 S6        29.97S
MARSHALL       RAIN      50  43  76 W5        29.96R
MOUNT PLEASANT DRIZZLE   42  39  89 CALM      29.88F
MUSKEGON       LGT RAIN  49  47  93 SW15G21   29.92R FOG
STURGIS        CLOUDY    49  43  80 S7        29.98R
$$
MIZ016>042-211500-
NORTHERN LOWER MICHIGAN

CITY           SKY/WX    TMP DP  RH WIND       PRES   REMARKS
ALPENA         LGT RAIN  40  39  97 S7        29.84S
BEAVER ISLAND  CLOUDY    43  43  99 SW13      29.80R FOG
BELLAIRE       CLOUDY    45  43  93 SW6       29.84S
CADILLAC       LGT RAIN  44  43  97 SW10      29.85R VSB 3/4
CHARLEVOIX     CLOUDY    47  46  95 S9        29.84R FOG
GAYLORD        CLOUDY    43  39  86 SW8       29.83R FOG
HOUGHTON LAKE  LGT RAIN  41  39  93 SW5       29.87S FOG
MANISTEE       CLOUDY    49  48  97 W8        29.86R FOG
OSCODA         MIX PCPN  39  35  84 SW10      29.90S WCI  32
PELLSTON       PTSUNNY   47  42  83 SW14G20   29.80S HAZE
TRAVERSE CITY  CLOUDY    50  46  86 SW5       29.84R
LUDINGTON      CLOUDY    45  44  96 SW12G20   29.88R FOG
$$
MIZ007>008-015-211500-
EASTERN UPPER MICHIGAN

CITY           SKY/WX    TMP DP  RH WIND       PRES   REMARKS
KINROSS        CLOUDY    35  35 100 S3        29.79R FOG
MACKINAC ISLAN CLOUDY    43  43 100 SW10G18   29.78R FOG
NEWBERRY       FOG       40  39  97 SW9       29.77R VSB<1/4 WCI  34
S. S. MARIE    CLOUDY    35  34  96 E5        29.79R FOG     WCI  31
$$
MIZ004>006-011>014-085-211500-
CENTRAL UPPER MICHIGAN

CITY           SKY/WX    TMP DP  RH WIND       PRES   REMARKS
MANISTIQUE     FOG       40  39  97 W7        29.78R VSB<1/4 WCI  35
ESCANABA       SUNNY     45  45 100 W8        29.82R
MENOMINEE      SUNNY     47  44  90 W8        29.84R
SAWYER-GWINN   SUNNY     41  39  93 W8        29.78R
$$
MIZ001>003-009>011-084-211500-
WESTERN UPPER MICHIGAN

CITY           SKY/WX    TMP DP  RH WIND       PRES   REMARKS
IRON MOUNTAIN  SUNNY     44  37  76 W7        29.79R
HOUGHTON       PTSUNNY   37  32  82 W31G41    29.73S WCI  24
COPPER HARBOR    N/A     39  34  82 NW15G25   29.71R WCI  31
IRONWOOD       MOCLDY    37  33  85 SW8       29.82R WCI  31
$$

ABBREVIATIONS USED IN REMARKS
   TC - TEMPERATURE IN CELSIUS
  WCI - WIND CHILL INDEX
   HX - HEAT INDEX
  VSB - VISIBILITY





USA.gov is the U.S. government's official web portal to all federal, state and local government web resources and services.